Find Starlink 5468

NORAD ID: 54777 Int'l Des: 2022-175 Owner: SPXS Country: US Constellation: starlink operational
LEOCIRCULAR

リアルタイム位置

3D地球を読み込み中...

Starlink 5468について

説明を読み込み中...

次回通過

Passes for default location (London). Set your location on the main map for personalized predictions.

高度履歴

Loading altitude history...

軌道要素

1 54777U 22175V 26126.06522139 -.00000242 00000-0 28710-5 0 9994
2 54777 53.2156 146.3498 0001011 75.3768 284.7336 15.08839907188581
Epoch: May 6, 2026 • Age: 9 hours

現在のステータス

高度 553.9 km
速度 7.58 km/s
衛星直下点 -40.86°S, 17.83°W
打ち上げ日 Dec 17, 2022
運用期間 3.3 years
タイプ internet

技術仕様

分類 Payload
質量 305.00 kg
乾燥質量 290.00 kg
総質量 305.00 kg
長さ 0.20 m
直径 2.80 m
スパン 9.00 m
形状 Box + pan
製造者 SPXS
バスタイプ Starlink
フェーズステータス In Orbit
所有者/国 SPXS/US

Most Searched